Time,TemperatureF,DewpointF,PressureIn,WindDirection,WindDirectionDegrees,WindSpeedMPH,WindSpeedGustMPH,Humidity,HourlyPrecipIn,Conditions,Clouds,dailyrainin,SolarRadiationWatts/m^2,SoftwareType,DateUTC
2013-01-13 00:03:00,54.0,51.0,30.35,SSE,165,2.0,5.0,91,0.00,,,0.01,0.000000,,2013-01-13 05:03:00,
2013-01-13 00:12:00,54.0,51.0,30.35,SSE,165,2.0,5.0,91,0.00,,,0.01,0.000000,,2013-01-13 05:12:00,
2013-01-13 00:33:00,51.0,47.0,30.34,South,169,6.0,8.0,85,0.00,,,0.01,0.000000,,2013-01-13 05:33:00,
2013-01-13 00:42:00,51.0,47.0,30.34,South,169,6.0,8.0,85,0.00,,,0.01,0.000000,,2013-01-13 05:42:00,
2013-01-13 00:53:00,51.0,47.0,30.34,South,169,6.0,8.0,85,0.00,,,0.01,0.000000,,2013-01-13 05:53:00,
2013-01-13 01:03:00,51.0,47.0,30.34,South,169,6.0,8.0,85,0.00,,,0.01,0.000000,,2013-01-13 06:03:00,
2013-01-13 01:12:00,51.0,47.0,30.34,South,169,6.0,8.0,85,0.00,,,0.01,0.000000,,2013-01-13 06:12:00,
2013-01-13 01:33:00,51.0,45.0,30.34,SSE,166,3.0,7.0,79,0.00,,,0.01,0.000000,,2013-01-13 06:33:00,
2013-01-13 01:42:00,51.0,45.0,30.34,SSE,166,3.0,7.0,79,0.00,,,0.01,0.000000,,2013-01-13 06:42:00,
2013-01-13 01:52:00,51.0,45.0,30.34,SSE,166,3.0,7.0,79,0.00,,,0.01,0.000000,,2013-01-13 06:52:00,
2013-01-13 02:02:00,51.0,45.0,30.34,SSE,166,3.0,7.0,79,0.00,,,0.01,0.000000,,2013-01-13 07:02:00,
2013-01-13 02:12:00,51.0,45.0,30.34,SSE,166,3.0,7.0,79,0.00,,,0.01,0.000000,,2013-01-13 07:12:00,
2013-01-13 02:33:00,51.0,43.0,30.34,South,170,4.0,8.0,73,0.00,,,-99.99,0.000000,,2013-01-13 07:33:00,
2013-01-13 02:42:00,51.0,43.0,30.34,South,170,4.0,8.0,73,0.00,,,-99.99,0.000000,,2013-01-13 07:42:00,
2013-01-13 02:53:00,51.0,43.0,30.34,South,170,4.0,8.0,73,0.00,,,-99.99,0.000000,,2013-01-13 07:53:00,
2013-01-13 03:02:00,51.0,43.0,30.34,South,170,4.0,8.0,73,0.00,,,-99.99,0.000000,,2013-01-13 08:02:00,
2013-01-13 03:12:00,51.0,43.0,30.34,South,170,4.0,8.0,73,0.00,,,-99.99,0.000000,,2013-01-13 08:12:00,
2013-01-13 03:42:00,55.0,45.0,30.33,South,177,6.0,10.0,70,0.00,,,0.01,0.000000,,2013-01-13 08:42:00,
2013-01-13 03:53:00,55.0,45.0,30.33,South,177,6.0,10.0,70,0.00,,,0.01,0.000000,,2013-01-13 08:53:00,
2013-01-13 04:02:00,55.0,45.0,30.33,South,177,6.0,10.0,70,0.00,,,0.01,0.000000,,2013-01-13 09:02:00,
2013-01-13 04:12:00,55.0,45.0,30.33,South,177,6.0,10.0,70,0.00,,,0.01,0.000000,,2013-01-13 09:12:00,
2013-01-13 04:32:00,55.0,44.0,30.32,South,185,5.0,9.0,67,0.00,,,0.01,0.000000,,2013-01-13 09:32:00,
2013-01-13 04:43:00,55.0,44.0,30.32,South,185,5.0,9.0,67,0.00,,,0.01,0.000000,,2013-01-13 09:43:00,
2013-01-13 04:53:00,55.0,44.0,30.32,South,185,5.0,9.0,67,0.00,,,0.01,0.000000,,2013-01-13 09:53:00,
2013-01-13 05:03:00,55.0,44.0,30.32,South,185,5.0,9.0,67,0.00,,,0.01,0.000000,,2013-01-13 10:03:00,
2013-01-13 05:12:00,55.0,44.0,30.32,South,185,5.0,9.0,67,0.00,,,0.01,0.000000,,2013-01-13 10:12:00,
2013-01-13 05:33:00,55.0,45.0,30.32,SSW,201,4.0,8.0,68,0.00,,,0.01,0.000000,,2013-01-13 10:33:00,
2013-01-13 05:42:00,55.0,45.0,30.32,SSW,201,4.0,8.0,68,0.00,,,0.01,0.000000,,2013-01-13 10:42:00,
2013-01-13 05:53:00,55.0,45.0,30.32,SSW,201,4.0,8.0,68,0.00,,,0.01,0.000000,,2013-01-13 10:53:00,
2013-01-13 06:02:00,55.0,45.0,30.32,SSW,201,4.0,8.0,68,0.00,,,0.01,0.000000,,2013-01-13 11:02:00,
2013-01-13 06:12:00,55.0,45.0,30.32,SSW,201,4.0,8.0,68,0.00,,,0.01,0.000000,,2013-01-13 11:12:00,
2013-01-13 06:43:00,53.0,42.0,30.33,South,186,4.0,9.0,67,0.00,,,0.01,0.000000,,2013-01-13 11:43:00,
2013-01-13 06:53:00,53.0,42.0,30.33,South,186,4.0,9.0,67,0.00,,,0.01,0.000000,,2013-01-13 11:53:00,
2013-01-13 07:03:00,53.0,42.0,30.33,South,186,4.0,9.0,67,0.00,,,0.01,0.000000,,2013-01-13 12:03:00,
2013-01-13 07:12:00,53.0,42.0,30.33,South,186,4.0,9.0,67,0.00,,,0.01,0.000000,,2013-01-13 12:12:00,
2013-01-13 07:33:00,51.0,40.0,30.34,South,179,5.0,8.0,67,0.00,,,0.01,0.000000,,2013-01-13 12:33:00,
2013-01-13 07:42:00,51.0,40.0,30.34,South,179,5.0,8.0,67,0.00,,,0.01,0.000000,,2013-01-13 12:42:00,
2013-01-13 07:53:00,51.0,40.0,30.34,South,179,5.0,8.0,67,0.00,,,0.01,0.000000,,2013-01-13 12:53:00,
2013-01-13 08:03:00,51.0,40.0,30.34,South,179,5.0,8.0,67,0.00,,,0.01,0.000000,,2013-01-13 13:03:00,
2013-01-13 08:12:00,51.0,40.0,30.34,South,179,5.0,8.0,67,0.00,,,0.01,0.000000,,2013-01-13 13:12:00,
2013-01-13 08:33:00,56.0,43.0,30.35,South,184,6.0,11.0,62,0.00,,,0.01,11.000000,,2013-01-13 13:33:00,
2013-01-13 08:43:00,56.0,43.0,30.35,South,184,6.0,11.0,62,0.00,,,0.01,11.000000,,2013-01-13 13:43:00,
2013-01-13 08:53:00,56.0,43.0,30.35,South,184,6.0,11.0,62,0.00,,,0.01,11.000000,,2013-01-13 13:53:00,
2013-01-13 09:03:00,56.0,43.0,30.35,South,184,6.0,11.0,62,0.00,,,0.01,11.000000,,2013-01-13 14:03:00,
2013-01-13 09:12:00,56.0,43.0,30.35,South,184,6.0,11.0,62,0.00,,,0.01,11.000000,,2013-01-13 14:12:00,
2013-01-13 09:33:00,59.0,46.0,30.38,NNE,30,5.0,33.0,62,0.00,,,0.01,77.000000,,2013-01-13 14:33:00,
2013-01-13 09:43:00,59.0,46.0,30.38,NNE,30,5.0,33.0,62,0.00,,,0.01,77.000000,,2013-01-13 14:43:00,
2013-01-13 09:53:00,59.0,46.0,30.38,NNE,30,5.0,33.0,62,0.00,,,0.01,77.000000,,2013-01-13 14:53:00,
2013-01-13 10:03:00,59.0,46.0,30.38,NNE,30,5.0,33.0,62,0.00,,,0.01,77.000000,,2013-01-13 15:03:00,
2013-01-13 10:13:00,59.0,46.0,30.38,NNE,30,5.0,33.0,62,0.00,,,0.01,77.000000,,2013-01-13 15:13:00,
2013-01-13 10:33:00,64.0,43.0,30.38,SW,219,8.0,19.0,47,0.00,,,0.01,234.000000,,2013-01-13 15:33:00,
2013-01-13 10:43:00,64.0,43.0,30.38,SW,219,8.0,19.0,47,0.00,,,0.01,234.000000,,2013-01-13 15:43:00,
2013-01-13 10:53:00,64.0,43.0,30.38,SW,219,8.0,19.0,47,0.00,,,0.01,234.000000,,2013-01-13 15:53:00,
2013-01-13 11:04:00,64.0,43.0,30.38,SW,219,8.0,19.0,47,0.00,,,0.01,234.000000,,2013-01-13 16:04:00,
2013-01-13 11:13:00,64.0,43.0,30.38,SW,219,8.0,19.0,47,0.00,,,0.01,234.000000,,2013-01-13 16:13:00,
2013-01-13 11:33:00,68.0,58.0,30.36,SW,219,8.0,19.0,71,0.00,,,0.01,319.000000,,2013-01-13 16:33:00,
2013-01-13 11:43:00,68.0,58.0,30.36,SW,219,8.0,19.0,71,0.00,,,0.01,319.000000,,2013-01-13 16:43:00,
2013-01-13 11:53:00,68.0,58.0,30.36,SW,219,8.0,19.0,71,0.00,,,0.01,319.000000,,2013-01-13 16:53:00,
2013-01-13 12:03:00,68.0,58.0,30.36,SW,219,8.0,19.0,71,0.00,,,0.01,319.000000,,2013-01-13 17:03:00,
2013-01-13 12:12:00,68.0,58.0,30.36,SW,219,8.0,19.0,71,0.00,,,0.01,319.000000,,2013-01-13 17:12:00,
2013-01-13 12:43:00,71.0,59.0,30.32,SW,224,13.0,26.0,67,0.00,,,0.00,292.000000,,2013-01-13 17:43:00,
2013-01-13 12:53:00,71.0,59.0,30.32,SW,224,13.0,26.0,67,0.00,,,0.00,292.000000,,2013-01-13 17:53:00,
2013-01-13 13:03:00,71.0,59.0,30.32,SW,224,13.0,26.0,67,0.00,,,0.00,292.000000,,2013-01-13 18:03:00,
2013-01-13 13:12:00,71.0,59.0,30.32,SW,224,13.0,26.0,67,0.00,,,0.00,292.000000,,2013-01-13 18:12:00,
2013-01-13 13:43:00,72.0,60.0,30.31,SW,220,13.0,24.0,65,0.00,,,0.00,374.000000,,2013-01-13 18:43:00,
2013-01-13 13:53:00,72.0,60.0,30.31,SW,220,13.0,24.0,65,0.00,,,0.00,374.000000,,2013-01-13 18:53:00,
2013-01-13 14:03:00,72.0,60.0,30.31,SW,220,13.0,24.0,65,0.00,,,0.00,374.000000,,2013-01-13 19:03:00,
2013-01-13 14:12:00,72.0,60.0,30.31,SW,220,13.0,24.0,65,0.00,,,0.00,374.000000,,2013-01-13 19:12:00,
2013-01-13 14:43:00,73.0,59.0,30.30,SSW,210,13.0,28.0,61,0.00,,,0.00,356.000000,,2013-01-13 19:43:00,
2013-01-13 14:53:00,73.0,59.0,30.30,SSW,210,13.0,28.0,61,0.00,,,0.00,356.000000,,2013-01-13 19:53:00,
2013-01-13 15:03:00,73.0,59.0,30.30,SSW,210,13.0,28.0,61,0.00,,,0.00,356.000000,,2013-01-13 20:03:00,
2013-01-13 15:12:00,73.0,59.0,30.30,SSW,210,13.0,28.0,61,0.00,,,0.00,356.000000,,2013-01-13 20:12:00,
2013-01-13 15:43:00,72.0,59.0,30.31,SSW,211,11.0,28.0,63,0.00,,,0.00,341.000000,,2013-01-13 20:43:00,
2013-01-13 15:53:00,72.0,59.0,30.31,SSW,211,11.0,28.0,63,0.00,,,0.00,341.000000,,2013-01-13 20:53:00,
2013-01-13 16:03:00,72.0,59.0,30.31,SSW,211,11.0,28.0,63,0.00,,,0.00,341.000000,,2013-01-13 21:03:00,
2013-01-13 16:13:00,72.0,59.0,30.31,SSW,211,11.0,28.0,63,0.00,,,0.00,341.000000,,2013-01-13 21:13:00,
2013-01-13 16:33:00,74.0,59.0,30.31,SSW,195,9.0,18.0,59,0.00,,,-99.99,213.000000,,2013-01-13 21:33:00,
2013-01-13 16:43:00,74.0,59.0,30.31,SSW,195,9.0,18.0,59,0.00,,,-99.99,213.000000,,2013-01-13 21:43:00,
2013-01-13 16:53:00,74.0,59.0,30.31,SSW,195,9.0,18.0,59,0.00,,,-99.99,213.000000,,2013-01-13 21:53:00,
2013-01-13 17:03:00,74.0,59.0,30.31,SSW,195,9.0,18.0,59,0.00,,,-99.99,213.000000,,2013-01-13 22:03:00,
2013-01-13 17:13:00,74.0,59.0,30.31,SSW,195,9.0,18.0,59,0.00,,,-99.99,213.000000,,2013-01-13 22:13:00,
2013-01-13 18:43:00,66.0,57.0,30.32,SSW,195,6.0,14.0,74,-99.99,,,0.00,5.000000,,2013-01-13 23:43:00,
2013-01-13 18:53:00,66.0,57.0,30.32,SSW,195,6.0,14.0,74,-99.99,,,0.00,5.000000,,2013-01-13 23:53:00,
2013-01-13 19:03:00,66.0,57.0,30.32,SSW,195,6.0,14.0,74,-99.99,,,0.00,5.000000,,2013-01-14 00:03:00,
2013-01-13 19:13:00,66.0,57.0,30.32,SSW,195,6.0,14.0,74,-99.99,,,0.00,5.000000,,2013-01-14 00:13:00,
2013-01-13 19:43:00,64.0,56.0,30.31,South,178,5.0,10.0,76,0.00,,,0.00,0.000000,,2013-01-14 00:43:00,
2013-01-13 19:53:00,64.0,56.0,30.31,South,178,5.0,10.0,76,0.00,,,0.00,0.000000,,2013-01-14 00:53:00,
2013-01-13 20:03:00,64.0,56.0,30.31,South,178,5.0,10.0,76,0.00,,,0.00,0.000000,,2013-01-14 01:03:00,
2013-01-13 20:12:00,64.0,56.0,30.31,South,178,5.0,10.0,76,0.00,,,0.00,0.000000,,2013-01-14 01:12:00,
2013-01-13 20:42:00,63.0,57.0,30.31,South,180,6.0,10.0,80,0.00,,,0.00,0.000000,,2013-01-14 01:42:00,
2013-01-13 20:53:00,63.0,57.0,30.31,South,180,6.0,10.0,80,0.00,,,0.00,0.000000,,2013-01-14 01:53:00,
2013-01-13 21:03:00,63.0,57.0,30.31,South,180,6.0,10.0,80,0.00,,,0.00,0.000000,,2013-01-14 02:03:00,
2013-01-13 21:12:00,63.0,57.0,30.31,South,180,6.0,10.0,80,0.00,,,0.00,0.000000,,2013-01-14 02:12:00,
2013-01-13 21:43:00,62.0,57.0,30.30,South,173,5.0,14.0,83,0.00,,,0.00,0.000000,,2013-01-14 02:43:00,
2013-01-13 21:53:00,62.0,57.0,30.30,South,173,5.0,14.0,83,0.00,,,0.00,0.000000,,2013-01-14 02:53:00,
2013-01-13 22:03:00,62.0,57.0,30.30,South,173,5.0,14.0,83,0.00,,,0.00,0.000000,,2013-01-14 03:03:00,
2013-01-13 22:12:00,62.0,57.0,30.30,South,173,5.0,14.0,83,0.00,,,0.00,0.000000,,2013-01-14 03:12:00,
2013-01-13 22:33:00,62.0,57.0,30.30,South,173,7.0,14.0,83,0.00,,,0.00,0.000000,,2013-01-14 03:33:00,
2013-01-13 22:43:00,62.0,57.0,30.30,South,173,7.0,14.0,83,0.00,,,0.00,0.000000,,2013-01-14 03:43:00,
2013-01-13 22:53:00,62.0,57.0,30.30,South,173,7.0,14.0,83,0.00,,,0.00,0.000000,,2013-01-14 03:53:00,
2013-01-13 23:03:00,62.0,57.0,30.30,South,173,7.0,14.0,83,0.00,,,0.00,0.000000,,2013-01-14 04:03:00,
2013-01-13 23:12:00,62.0,57.0,30.30,South,173,7.0,14.0,83,0.00,,,0.00,0.000000,,2013-01-14 04:12:00,
2013-01-13 23:32:00,63.0,59.0,30.32,South,184,7.0,15.0,86,0.00,,,0.00,0.000000,,2013-01-14 04:32:00,
2013-01-13 23:42:00,63.0,59.0,30.32,South,184,7.0,15.0,86,0.00,,,0.00,0.000000,,2013-01-14 04:42:00,
2013-01-13 23:53:00,63.0,59.0,30.32,South,184,7.0,15.0,86,0.00,,,0.00,0.000000,,2013-01-14 04:53:00,